This is the latest recevied weather packets stored in our database for station/object OK1KKY-18. If no packets are shown the sender has not sent any weather packets the latest 10 day(s).
| Time | Temp. | Humidity | Pressure | Rain* | Wind** | Luminosity | Snow |
|---|---|---|---|---|---|---|---|
| 1778144766 | 11.67° C | 86% | 1011.4 hPa | - | - | - | - |
| 1778144166 | 11.67° C | 86% | 1011.3 hPa | - | - | - | - |
| 1778143566 | 11.67° C | 85% | 1011.3 hPa | - | - | - | - |
| 1778142966 | 11.67° C | 84% | 1011 hPa | - | - | - | - |
| 1778142366 | 11.67° C | 87% | 1011.1 hPa | - | - | - | - |
| 1778141766 | 11.67° C | 85% | 1011 hPa | - | - | - | - |
| 1778141166 | 11.67° C | 86% | 1011 hPa | - | - | - | - |
| 1778140566 | 11.67° C | 87% | 1010.9 hPa | - | - | - | - |
| 1778139966 | 11.67° C | 87% | 1010.7 hPa | - | - | - | - |
| 1778139366 | 11.67° C | 88% | 1010.6 hPa | - | - | - | - |
| 1778138766 | 11.67° C | 87% | 1010.5 hPa | - | - | - | - |
| 1778138166 | 11.67° C | 87% | 1010.4 hPa | - | - | - | - |
| 1778137566 | 11.67° C | 87% | 1010.3 hPa | - | - | - | - |
| 1778136966 | 11.67° C | 87% | 1010.3 hPa | - | - | - | - |
| 1778136366 | 11.67° C | 90% | 1010.3 hPa | - | - | - | - |
| 1778135766 | 11.67° C | 90% | 1010.1 hPa | - | - | - | - |
| 1778135166 | 11.67° C | 89% | 1009.9 hPa | - | - | - | - |
| 1778134566 | 11.11° C | 90% | 1009.8 hPa | - | - | - | - |
| 1778133966 | 11.11° C | 91% | 1009.7 hPa | - | - | - | - |
| 1778133366 | 11.11° C | 91% | 1009.5 hPa | - | - | - | - |
| 1778132766 | 11.11° C | 91% | 1009.5 hPa | - | - | - | - |
| 1778132166 | 11.11° C | 91% | 1009.5 hPa | - | - | - | - |
| 1778131566 | 11.11° C | 93% | 1009.3 hPa | - | - | - | - |
| 1778130966 | 11.11° C | 93% | 1009.2 hPa | - | - | - | - |
| 1778130367 | 11.11° C | 93% | 1009.1 hPa | - | - | - | - |
* Rain since midnight (hover to see other rain measurements)
** Current wind speed in m/s (hover to see current wind gust speed)